RESURS O1 DEB

Satellite information

Favourite Embed

Satellite Type and Status

DEBRISIN ORBIT

Key statistics

Satellite RESURS O1 DEB at a glance.

Uptime

11203

Days in orbit

Revolutions

≈ 14.6

Per day

Orbit

SSO

Sun Synchronous Orbit

Inclination

97.9

Latest

Satellite identification and parameters

Extended collection of information and parameters for RESURS O1 DEB.

Object identification

Identified? True

Debris? True

Object name: RESURS O1 DEB

International designator: 1994-074F

Object number (NORAD): 23347

Object ID (CCSDS): 23347

Country: COMMONWEALTH OF INDEPENDENT STATES (CIS)

Current information (Y/N): Y

RCS size: SMALL

Orbital parameters

Period: 98.858 minutes

Inclination: 97.8576 deg

SMA: 7082.183 km

Apoapsis: 792.142 km

Periapsis: 615.953 km

RAAN: 267.4428 deg

Eccentricy: 0.0124389

Argument of periapsis: 163.6678 deg

Mean anomaly: 260.1148 deg

Mean motion: 14.56639453 rev/day

Mean motion (dot): 0.00001166 rev/day2

B* drag term: 0.00024485 1/REarth

Two-line elements (TLE)

Creation date: July 6, 2025, 6:05 p.m.

Reference frame: TEME

Reference center: EARTH

Epoch: July 6, 2025, 5:35 a.m. UTC

TLE line 0: 0 RESURS O1 DEB

TLE line 1: 1 23347U 94074F 25187.23269895 .00001166 00000-0 24485-3 0 9990

TLE line 2: 2 23347 97.8576 267.4428 0124389 163.6678 260.1148 14.56639453619688

Live tracking on map

Real-time ground track for satellite RESURS O1 DEB.

In-orbit conjunctions

A list of the most updated potential collisions computed for object RESURS O1 DEB.

Target Orbit TCA Probability of collision Miss distance Type
IRIDIUM 4 LEO 2024-09-06 07:27:54 0.001060241 262.0 (m) PAYLOAD

Associated space launch

Resurs-O1 N3 or Resurs-O1 1 is the third earth observation satellite in the Russian Resurs-O1 program.

RESURS O1 DEB was lifted into orbit during the mission ‘Zenit-2 | Resurs-O1’, on board a Zenit-2 space rocket.

The launch took place on Nov. 4, 1994, 5:47 a.m. from 45/1.

For more information about the launch, click the button.

Launch to space Zenit-2 | Resurs-O1
Zenit-2 | Resurs-O1

Agency: N/A

Status: Launch Successful

Launch date: Nov. 4, 1994, 5:47 a.m. UTC

Rocket: Zenit-2

Launch pad: 45/1

Location: Baikonur Cosmodrome, Republic of Kazakhstan

...

Latest news about this satellite

There are no fresh news available about this satellite. Check back as we update our databases every day.


Newsletter sign-up

Weekly statistics, charts and insights to help you stay on top of the space industry.